Tracking 30995 objects as of 6-Jul-2025
HD Live streaming from Space Station
objects crossing your sky now

NOAA 16 DEB

Track NOAA 16 DEB now!
10-day predictions


NORAD ID: 42365
Int'l Code: 2000-055RH
Perigee: 712.4 km
Apogee: 772.8 km
Inclination: 99.0 °
Period: 99.5 minutes
Semi major axis: 7113 km
RCS: Unknown
Launch date: September 21, 2000
Source: United States (US)
Launch site: AIR FORCE WESTERN TEST RANGE (AFWTR)

Note: This is SATELLITE DEBRIS
Your satellite tracking list
Your tracking list is empty




NASA's NSSDC Master Catalog

Two Line Element Set (TLE):
1 42365U 00055RH  25183.29814731  .00004733  00000-0  12995-2 0  9999
2 42365  98.9888   6.5693 0042477  90.1549 270.4509 14.47009691488001
Source of the keplerian elements: AFSPC